Franklin, NC

11:12 AM EDT on August 28, 2016 (GMT -0400)
Franklin

Weather History for K1A5 - November, 2012

Change the Weather History Date:

Sunday, November 4, 2012

  Actual Average (KTOC) Record (KTOC)
Temperature  
Mean Temperature 52 °F -  
Max Temperature 62 °F 66 °F 71 °F (2014)
Min Temperature 41 °F 44 °F 39 °F (2014)
Degree Days  
Heating Degree Days 14    
Growing Degree Days 2 (Base 50)    
Moisture  
Dew Point 42 °F    
Average Humidity 67    
Maximum Humidity 93    
Minimum Humidity 48    
Precipitation  
Precipitation 0.00 in - - ()
Sea Level Pressure  
Sea Level Pressure 30.00 in    
Wind  
Wind Speed 3 mph (WNW)    
Max Wind Speed 13 mph    
Max Gust Speed 18 mph    
Visibility 10 miles    
Events      
Averages and records for this station are not official NWS values.
T = Trace of Precipitation, MM = Missing Value Source: NWS Daily Summary

Daily Weather History Graph

Daily Weather History Graph

Search for Another Location

Airport or City:

Trip Planner

Search our weather history database for the weather conditions in past years. The results will help you decide how hot, cold, wet, or windy it might be!

Date:

Astronomy

Nov. 04, 2012 Rise Set
Actual Time 6:58 AM EST 5:35 PM EST
Civil Twilight 6:31 AM EST 6:02 PM EST
Nautical Twilight 6:01 AM EST 6:32 PM EST
Astronomical Twilight 5:31 AM EST 7:01 PM EST
Moon 10:14 PM EST (11/4) 11:38 AM EST (11/4)
Length of Visible Light 11h 30m
Length of Day
10h 37m
Waning Gibbous, 72% of the Moon is Illuminated
Nov 4
Waning Gibbous
Nov 6
Last Quarter
Nov 13
New
Nov 20
First Quarter
Nov 28
Full

Hourly Weather History & Observations

Time (EST) Temp. Windchill Dew Point Humidity Pressure Visibility Wind Dir Wind Speed Gust Speed Precip Events Conditions
12:15 AM 41.0 °F - 37.4 °F 87% 30.02 in 10.0 mi Calm Calm - N/A   Scattered Clouds
12:35 AM 42.8 °F - 41.0 °F 93% 30.01 in 10.0 mi Calm Calm - N/A   Scattered Clouds
12:55 AM 42.8 °F - 41.0 °F 93% 30.01 in 10.0 mi Calm Calm - N/A   Scattered Clouds
1:15 AM 44.6 °F - 42.8 °F 93% 30.01 in 10.0 mi Calm Calm - N/A   Mostly Cloudy
1:35 AM 44.6 °F - 42.8 °F 93% 30.01 in 10.0 mi Calm Calm - N/A   Overcast
1:55 AM 44.6 °F - 42.8 °F 93% 30.01 in 10.0 mi Calm Calm - N/A   Overcast
1:15 AM 44.6 °F - 42.8 °F 93% 30.01 in 10.0 mi Calm Calm - N/A   Scattered Clouds
1:35 AM 44.6 °F - 42.8 °F 93% 30.01 in 10.0 mi Calm Calm - N/A   Scattered Clouds
1:55 AM 46.4 °F - 42.8 °F 87% 30.00 in 10.0 mi Calm Calm - N/A   Scattered Clouds
2:15 AM 46.4 °F - 42.8 °F 87% 30.00 in 10.0 mi Calm Calm - N/A   Scattered Clouds
2:35 AM 60.8 °F - 46.4 °F 59% 29.99 in 10.0 mi WNW 4.6 mph - N/A   Clear
2:55 AM 60.8 °F - 44.6 °F 55% 29.99 in 10.0 mi WNW 6.9 mph - N/A   Clear
3:15 AM 60.8 °F - 44.6 °F 55% 29.99 in 10.0 mi West 9.2 mph - N/A   Clear
3:35 AM 59.0 °F - 44.6 °F 59% 29.99 in 10.0 mi West 9.2 mph - N/A   Clear
3:55 AM 60.8 °F - 46.4 °F 59% 29.99 in 10.0 mi West 6.9 mph - N/A   Clear
4:15 AM 55.4 °F - 44.6 °F 67% 29.99 in 10.0 mi WNW 4.6 mph - N/A   Scattered Clouds
4:35 AM 53.6 °F - 46.4 °F 77% 29.99 in 10.0 mi Calm Calm - N/A   Mostly Cloudy
4:55 AM 51.8 °F - 44.6 °F 76% 29.99 in 10.0 mi Calm Calm - N/A   Mostly Cloudy
5:15 AM 50.0 °F - 44.6 °F 82% 29.99 in 10.0 mi Calm Calm - N/A   Mostly Cloudy
5:35 AM 50.0 °F - 44.6 °F 82% 29.99 in 10.0 mi Calm Calm - N/A   Overcast
5:55 AM 50.0 °F - 44.6 °F 82% 30.00 in 10.0 mi Calm Calm - N/A   Overcast
6:15 AM 50.0 °F - 46.4 °F 87% 29.99 in 10.0 mi Calm Calm - N/A   Overcast
6:35 AM 50.0 °F - 46.4 °F 87% 30.00 in 10.0 mi Calm Calm - N/A   Overcast
6:55 AM 50.0 °F - 46.4 °F 87% 30.00 in 10.0 mi Calm Calm - N/A   Overcast
7:15 AM 50.0 °F - 46.4 °F 87% 30.00 in 10.0 mi Calm Calm - N/A   Overcast
7:35 AM 50.0 °F - 46.4 °F 87% 30.01 in 10.0 mi Calm Calm - N/A   Overcast
7:55 AM 51.8 °F - 46.4 °F 82% 30.01 in 10.0 mi Calm Calm - N/A   Mostly Cloudy
8:15 AM 53.6 °F - 46.4 °F 77% 30.01 in 10.0 mi Calm Calm - N/A   Mostly Cloudy
8:35 AM 53.6 °F - 46.4 °F 77% 30.01 in 5.0 mi Calm Calm - N/A   Haze
8:55 AM 55.4 °F - 50.0 °F 82% 30.01 in 10.0 mi Calm Calm - N/A   Scattered Clouds
9:15 AM 59.0 °F - 51.8 °F 77% 30.01 in 10.0 mi West 6.9 mph - N/A   Scattered Clouds
9:35 AM 60.8 °F - 50.0 °F 68% 30.01 in 10.0 mi West 5.8 mph - N/A   Clear
9:55 AM 60.8 °F - 48.2 °F 63% 30.00 in 10.0 mi Calm Calm - N/A   Clear
10:15 AM 60.8 °F - 48.2 °F 63% 30.00 in 10.0 mi West 3.5 mph - N/A   Clear
10:35 AM 62.6 °F - 48.2 °F 59% 30.00 in 10.0 mi NW 4.6 mph - N/A   Clear
10:55 AM 62.6 °F - 46.4 °F 55% 30.00 in 10.0 mi West 4.6 mph - N/A   Clear
11:15 AM 62.6 °F - 44.6 °F 52% 29.99 in 10.0 mi WNW 4.6 mph - N/A   Clear
11:35 AM 62.6 °F - 46.4 °F 55% 29.99 in 10.0 mi WNW 3.5 mph - N/A   Clear
11:55 AM 62.6 °F - 44.6 °F 52% 29.99 in 10.0 mi NW 8.1 mph - N/A   Clear
12:15 PM 62.6 °F - 44.6 °F 52% 29.99 in 10.0 mi NW 6.9 mph - N/A   Clear
12:35 PM 62.6 °F - 42.8 °F 48% 29.98 in 10.0 mi WNW 5.8 mph - N/A   Clear
12:55 PM 60.8 °F - 42.8 °F 52% 29.98 in 10.0 mi WNW 4.6 mph - N/A   Clear
1:15 PM 60.8 °F - 41.0 °F 48% 29.98 in 10.0 mi WNW 4.6 mph - N/A   Clear
1:35 PM 60.8 °F - 41.0 °F 48% 29.98 in 10.0 mi WNW 5.8 mph - N/A   Clear
1:55 PM 60.8 °F - 42.8 °F 52% 29.98 in 10.0 mi WNW 6.9 mph - N/A   Scattered Clouds
2:15 PM 60.8 °F - 41.0 °F 48% 29.98 in 10.0 mi NW 5.8 mph - N/A   Scattered Clouds
2:35 PM 60.8 °F - 42.8 °F 52% 29.97 in 10.0 mi WNW 5.8 mph - N/A   Mostly Cloudy
2:55 PM 59.0 °F - 41.0 °F 51% 29.97 in 10.0 mi NW 6.9 mph - N/A   Scattered Clouds
3:15 PM 60.8 °F - 41.0 °F 48% 29.97 in 10.0 mi NW 5.8 mph - N/A   Clear
3:35 PM 60.8 °F - 42.8 °F 52% 29.95 in 10.0 mi North 5.8 mph - N/A   Clear
3:55 PM 60.8 °F - 41.0 °F 48% 29.96 in 10.0 mi NW 5.8 mph - N/A   Clear
4:15 PM 59.0 °F - 41.0 °F 51% 29.97 in 10.0 mi NW 6.9 mph 17.3 mph N/A   Clear
4:35 PM 57.2 °F - 39.2 °F 51% 29.97 in 10.0 mi WNW 6.9 mph - N/A   Clear
4:55 PM 55.4 °F - 39.2 °F 54% 29.98 in 10.0 mi NNW 9.2 mph - N/A   Clear
5:15 PM 53.6 °F - 39.2 °F 58% 29.98 in 10.0 mi NW 3.5 mph - N/A   Clear
5:35 PM 53.6 °F - 39.2 °F 58% 29.99 in 10.0 mi NW 6.9 mph - N/A   Clear
5:55 PM 51.8 °F - 37.4 °F 58% 30.00 in 10.0 mi WNW 12.7 mph 18.4 mph N/A   Clear
6:15 PM 51.8 °F - 37.4 °F 58% 30.00 in 10.0 mi WNW 3.5 mph - N/A   Clear
6:35 PM 51.8 °F - 37.4 °F 58% 30.01 in 10.0 mi NW 4.6 mph - N/A   Clear
6:55 PM 51.8 °F - 37.4 °F 58% 30.01 in 10.0 mi WNW 9.2 mph - N/A   Clear
7:15 PM 51.8 °F - 37.4 °F 58% 30.01 in 10.0 mi WNW 5.8 mph - N/A   Clear
7:35 PM 50.0 °F - 37.4 °F 62% 30.01 in 10.0 mi NW 9.2 mph - N/A   Clear
7:55 PM 50.0 °F - 37.4 °F 62% 30.01 in 10.0 mi WNW 4.6 mph - N/A   Clear
8:15 PM 48.2 °F - 37.4 °F 66% 30.02 in 10.0 mi ENE 4.6 mph - N/A   Clear
8:35 PM 48.2 °F - 37.4 °F 66% 30.03 in 10.0 mi WNW 4.6 mph - N/A   Clear
8:55 PM 50.0 °F - 37.4 °F 62% 30.03 in 10.0 mi WNW 6.9 mph - N/A   Clear
9:15 PM 48.2 °F - 37.4 °F 66% 30.03 in 10.0 mi WNW 6.9 mph - N/A   Clear
9:35 PM 48.2 °F - 37.4 °F 66% 30.03 in 10.0 mi WNW 11.5 mph 16.1 mph N/A   Clear
9:55 PM 46.4 °F 44.3 °F 35.6 °F 66% 30.03 in 10.0 mi WNW 4.6 mph - N/A   Clear
10:15 PM 46.4 °F 45.2 °F 35.6 °F 66% 30.03 in 10.0 mi WNW 3.5 mph - N/A   Clear
10:35 PM 44.6 °F - 35.6 °F 71% 30.03 in 10.0 mi Calm Calm - N/A   Clear
10:55 PM 44.6 °F 41.4 °F 35.6 °F 71% 30.03 in 10.0 mi WNW 5.8 mph - N/A   Clear